Regional Weather Roundup
Issued by NWS

Home | Current Version | Previous Version | Text Only | Print | Product List | Glossary Off
Versions: 1 2 3 4 5 6 7 8 9 10 11 12 13 14 15 16 17 18 19 20 21 22 23 24 25 26 27 28 29 30 31 32 33 34 35 36 37 38 39 40 41 42 43 44 45 46 47 48 49 50

000
ASUS43 KOAX 182302
RWRNE

WEATHER ROUNDUP FOR NEBRASKA
NATIONAL WEATHER SERVICE OMAHA NE
600 PM CDT WED OCT 18 2017

NOTES: SATELLITE DATA IS BEING USED TO AUGMENT CLOUD COVER ABOVE
       12000 FEET.
       "FAIR" INDICATES FEW OR NO CLOUDS BELOW 12,000 FEET WITH NO
       SIGNIFICANT WEATHER AND/OR OBSTRUCTIONS TO VISIBILITY.


NEZ001>004-019>022-054>056-190000-
NEBRASKA PANHANDLE

CITY           SKY/WX    TMP DP  RH WIND       PRES   REMARKS
SCOTTSBLUFF    SUNNY     71  26  18 SE10      30.07F
ALLIANCE       SUNNY     68  28  22 SE8       30.08S
CHADRON        SUNNY     70  26  19 S13       30.04F
GORDON         FAIR      65  31  27 S6        30.08R
KIMBALL        SUNNY     70  22  16 E9        30.12S
SIDNEY         SUNNY     71  23  16 SE10      30.10F
$$

NEZ057>060-069>072-079>082-190000-
SOUTHWEST NEBRASKA

CITY           SKY/WX    TMP DP  RH WIND       PRES   REMARKS
NORTH PLATTE   CLEAR     70  33  25 NE12      30.07R
IMPERIAL       SUNNY     73  25  16 E10       30.08R
LEXINGTON      CLEAR     69  37  30 NE10      30.05R
MCCOOK         CLEAR     73  33  23 NE16      30.04R
OGALLALA       SUNNY     72  30  21 E8        30.09R
$$

NEZ005>010-023>029-035>040-094-190000-
NORTH CENTRAL NEBRASKA

CITY           SKY/WX    TMP DP  RH WIND       PRES   REMARKS
VALENTINE      CLEAR     66  30  26 NE5       30.08R
AINSWORTH      CLEAR     64  36  36 NE3       30.08R
BROKEN BOW     CLEAR     69  36  29 NE9       30.06R
O`NEILL        CLEAR     66  38  35 N6        30.06R
ORD            CLEAR     68  32  26 N7        30.03R
THEDFORD       CLEAR     68  33  27 NE7       30.09R
$$

NEZ041-046>049-061>064-073>077-083>087-190000-
SOUTH CENTRAL NEBRASKA

CITY           SKY/WX    TMP DP  RH WIND       PRES   REMARKS
GRAND ISLAND   CLEAR     71  37  28 N14       30.02R
AURORA         CLEAR     71  37  27 N10       30.00R
HASTINGS       CLEAR     72  36  26 NE14G22   30.01R
HEBRON         CLEAR     75  48  37 S5        29.96R
HOLDREGE       CLEAR     70  38  31 N15       30.03R
KEARNEY        CLEAR     70  36  28 NE14      30.03R
YORK           CLEAR     70  41  35 N12       29.99R
$$

NEZ011>018-030>034-042>045-190000-
NORTHEAST NEBRASKA

CITY           SKY/WX    TMP DP  RH WIND       PRES   REMARKS
NORFOLK        CLEAR     70  37  29 N10       29.99R
ALBION         CLEAR     70  40  33 N6        30.02R
BLAIR          CLEAR     72  49  44 NW6       29.96R
COLUMBUS       CLEAR     71  39  31 N14       29.99R
FREMONT        CLEAR     73  41  32 N5        29.97R
TEKAMAH        CLEAR     72  42  34 N7        29.97R
WAYNE          CLEAR     67  40  37 NE6       30.00R
$$

NEZ050>053-065>068-078-088>093-190000-
SOUTHEAST NEBRASKA

CITY           SKY/WX    TMP DP  RH WIND       PRES   REMARKS
LINCOLN        CLEAR     77  50  38 N3        29.96R
OMAHA EPPLEY   PTCLDY    74  51  44 NW5       29.95R
BEATRICE       CLEAR     71  52  51 S8        29.96R
FALLS CITY     CLEAR     72  49  44 S8        29.96R
NEBRASKA CITY  CLEAR     72  50  46 SW5       29.96R
PLATTSMOUTH    CLEAR     73  50  44 S3        29.96R
$$

NEZ044-045-051>053-067-190000-
OMAHA AREA

CITY           SKY/WX    TMP DP  RH WIND       PRES   REMARKS
OMAHA EPPLEY   PTCLDY    74  51  44 NW5       29.95R
BLAIR          CLEAR     72  49  44 NW6       29.96R
FREMONT        CLEAR     73  41  32 N5        29.97R
MILLARD        CLEAR     76  56  49 CALM      29.95R
OFFUTT AFB     CLEAR     73  52  48 S3        29.94R
PLATTSMOUTH    CLEAR     73  50  44 S3        29.96R
WAHOO          FAIR      74  41  29 N8        29.96R
$$




USA.gov is the U.S. government's official web portal to all federal, state and local government web resources and services.